Terug naar catalogus

STARLINK-35725

ActiefCommunicatieSSO
NORAD 67565·PAYLOAD·🇺🇸 United States

Gelanceerd Jan 25, 2026 vanaf Vandenberg Space Force Base

Loading…

Volgende Passages (komende 24 uur)

TLE

VersSource: CelesTrak SupGP

Epoch: Sep 14, 2026, 21:34 UTC

1 67565C 26016E   26257.89909722 -.00013467  00000+0 -41809-3 0  2576
2 67565  97.2848 316.5949 0001005  87.6508 105.8271 15.33443428    18

Volg STARLINK-35725 in realtime met AllMySat

Download on the App Store